Year,Month,Day,Hour,Minute,Value (Times are PST for temperature in C)
2012,07,23,00,00,12.00
2012,07,23,00,01,12.00
2012,07,23,00,02,12.00
2012,07,23,00,03,12.00
2012,07,23,00,04,12.00
2012,07,23,00,05,12.00
2012,07,23,00,06,12.00
2012,07,23,00,07,12.00
2012,07,23,00,08,12.00
2012,07,23,00,09,12.00
2012,07,23,00,10,11.90
2012,07,23,00,11,11.90
2012,07,23,00,12,11.90
2012,07,23,00,13,11.90
2012,07,23,00,14,11.90
2012,07,23,00,15,11.90
2012,07,23,00,16,11.90
2012,07,23,00,17,11.90
2012,07,23,00,18,11.90
2012,07,23,00,19,11.90
2012,07,23,00,20,12.00
2012,07,23,00,21,12.00
2012,07,23,00,22,12.00
2012,07,23,00,23,12.00
2012,07,23,00,24,12.00
2012,07,23,00,25,12.00
2012,07,23,00,26,12.00
2012,07,23,00,27,12.00
2012,07,23,00,28,12.00
2012,07,23,00,29,11.90
2012,07,23,00,30,11.90
2012,07,23,00,31,11.90
2012,07,23,00,32,11.90
2012,07,23,00,33,11.90
2012,07,23,00,34,11.90
2012,07,23,00,35,11.90
2012,07,23,00,36,11.90
2012,07,23,00,37,12.00
2012,07,23,00,38,12.00
2012,07,23,00,39,12.00
2012,07,23,00,40,12.00
2012,07,23,00,41,12.00
2012,07,23,00,42,12.00
2012,07,23,00,43,12.00
2012,07,23,00,44,12.00
2012,07,23,00,45,12.00
2012,07,23,00,46,12.00
2012,07,23,00,47,12.00
2012,07,23,00,48,12.00
2012,07,23,00,49,12.00
2012,07,23,00,50,12.00
2012,07,23,00,51,12.00
2012,07,23,00,52,12.00
2012,07,23,00,53,12.00
2012,07,23,00,54,12.00
2012,07,23,00,55,12.00
2012,07,23,00,56,12.00
2012,07,23,00,57,12.00
2012,07,23,00,58,12.00
2012,07,23,00,59,12.00
2012,07,23,01,00,12.00
2012,07,23,01,01,12.00
2012,07,23,01,02,12.00
2012,07,23,01,03,12.00
2012,07,23,01,04,12.00
2012,07,23,01,05,12.00
2012,07,23,01,06,12.00
2012,07,23,01,07,12.00
2012,07,23,01,08,12.00
2012,07,23,01,09,12.00
2012,07,23,01,10,12.00
2012,07,23,01,11,12.00
2012,07,23,01,12,12.00
2012,07,23,01,13,12.00
2012,07,23,01,14,12.00
2012,07,23,01,15,12.00
2012,07,23,01,16,12.00
2012,07,23,01,17,12.00
2012,07,23,01,18,12.00
2012,07,23,01,19,12.00
2012,07,23,01,20,12.00
2012,07,23,01,21,12.00
2012,07,23,01,22,12.00
2012,07,23,01,23,12.00
2012,07,23,01,24,12.00
2012,07,23,01,25,12.00
2012,07,23,01,26,12.00
2012,07,23,01,27,12.00
2012,07,23,01,28,12.00
2012,07,23,01,29,12.00
2012,07,23,01,30,12.00
2012,07,23,01,31,12.00
2012,07,23,01,32,12.00
2012,07,23,01,33,12.00
2012,07,23,01,34,11.90
2012,07,23,01,35,11.90
2012,07,23,01,36,11.90
2012,07,23,01,37,11.90
2012,07,23,01,38,12.00
2012,07,23,01,39,12.00
2012,07,23,01,40,12.00
2012,07,23,01,41,12.00
2012,07,23,01,42,12.00
2012,07,23,01,43,12.00
2012,07,23,01,44,12.00
2012,07,23,01,45,12.00
2012,07,23,01,46,12.00
2012,07,23,01,47,11.90
2012,07,23,01,48,12.00
2012,07,23,01,49,11.90
2012,07,23,01,50,11.90
2012,07,23,01,51,11.90
2012,07,23,01,52,11.90
2012,07,23,01,53,11.90
2012,07,23,01,54,11.90
2012,07,23,01,55,11.90
2012,07,23,01,56,11.90
2012,07,23,01,57,11.90
2012,07,23,01,58,11.90
2012,07,23,01,59,11.90
2012,07,23,02,00,11.90
2012,07,23,02,01,11.90
2012,07,23,02,02,11.90
2012,07,23,02,03,11.90
2012,07,23,02,04,11.90
2012,07,23,02,05,11.90
2012,07,23,02,06,11.90
2012,07,23,02,07,11.90
2012,07,23,02,08,11.90
2012,07,23,02,09,11.90
2012,07,23,02,10,11.90
2012,07,23,02,11,11.90
2012,07,23,02,12,11.90
2012,07,23,02,13,11.90
2012,07,23,02,14,11.90
2012,07,23,02,15,11.90
2012,07,23,02,16,11.90
2012,07,23,02,17,11.90
2012,07,23,02,18,11.90
2012,07,23,02,19,11.90
2012,07,23,02,20,11.90
2012,07,23,02,21,11.90
2012,07,23,02,22,11.90
2012,07,23,02,23,11.90
2012,07,23,02,24,11.90
2012,07,23,02,25,11.90
2012,07,23,02,26,11.90
2012,07,23,02,27,11.90
2012,07,23,02,28,11.90
2012,07,23,02,29,11.90
2012,07,23,02,30,11.90
2012,07,23,02,31,11.90
2012,07,23,02,32,11.90
2012,07,23,02,33,11.90
2012,07,23,02,34,11.90
2012,07,23,02,35,11.90
2012,07,23,02,36,11.90
2012,07,23,02,37,11.90
2012,07,23,02,38,11.90
2012,07,23,02,39,11.90
2012,07,23,02,40,11.90
2012,07,23,02,41,11.90
2012,07,23,02,42,11.90
2012,07,23,02,43,11.90
2012,07,23,02,44,11.90
2012,07,23,02,45,11.90
2012,07,23,02,46,11.90
2012,07,23,02,47,11.90
2012,07,23,02,48,11.90
2012,07,23,02,49,11.90
2012,07,23,02,50,11.90
2012,07,23,02,51,11.90
2012,07,23,02,52,11.90
2012,07,23,02,53,11.80
2012,07,23,02,54,11.80
2012,07,23,02,55,11.80
2012,07,23,02,56,11.80
2012,07,23,02,57,11.80
2012,07,23,02,58,11.80
2012,07,23,02,59,11.80
2012,07,23,03,00,11.80
2012,07,23,03,01,11.80
2012,07,23,03,02,11.80
2012,07,23,03,03,11.80
2012,07,23,03,04,11.80
2012,07,23,03,05,11.80
2012,07,23,03,06,11.80
2012,07,23,03,07,11.80
2012,07,23,03,08,11.80
2012,07,23,03,09,11.80
2012,07,23,03,10,11.80
2012,07,23,03,11,11.80
2012,07,23,03,12,11.80
2012,07,23,03,13,11.80
2012,07,23,03,14,11.80
2012,07,23,03,15,11.80
2012,07,23,03,16,11.80
2012,07,23,03,17,11.80
2012,07,23,03,18,11.80
2012,07,23,03,19,11.80
2012,07,23,03,20,11.80
2012,07,23,03,21,11.80
2012,07,23,03,22,11.80
2012,07,23,03,23,11.80
2012,07,23,03,24,11.80
2012,07,23,03,25,11.80
2012,07,23,03,26,11.80
2012,07,23,03,27,11.80
2012,07,23,03,28,11.80
2012,07,23,03,29,11.80
2012,07,23,03,30,11.80
2012,07,23,03,31,11.80
2012,07,23,03,32,11.80
2012,07,23,03,33,11.80
2012,07,23,03,34,11.80
2012,07,23,03,35,11.80
2012,07,23,03,36,11.80
2012,07,23,03,37,11.80
2012,07,23,03,38,11.80
2012,07,23,03,39,11.80
2012,07,23,03,40,11.80
2012,07,23,03,41,11.80
2012,07,23,03,42,11.70
2012,07,23,03,43,11.70
2012,07,23,03,44,11.70
2012,07,23,03,45,11.70
2012,07,23,03,46,11.70
2012,07,23,03,47,11.70
2012,07,23,03,48,11.70
2012,07,23,03,49,11.70
2012,07,23,03,50,11.70
2012,07,23,03,51,11.70
2012,07,23,03,52,11.70
2012,07,23,03,53,11.70
2012,07,23,03,54,11.70
2012,07,23,03,55,11.70
2012,07,23,03,56,11.70
2012,07,23,03,57,11.70
2012,07,23,03,58,11.70
2012,07,23,03,59,11.70
2012,07,23,04,00,11.70
2012,07,23,04,01,11.70
2012,07,23,04,02,11.70
2012,07,23,04,03,11.70
2012,07,23,04,04,11.70
2012,07,23,04,05,11.60
2012,07,23,04,06,11.60
2012,07,23,04,07,11.60
2012,07,23,04,08,11.60
2012,07,23,04,09,11.60
2012,07,23,04,10,11.60
2012,07,23,04,11,11.60
2012,07,23,04,12,11.60
2012,07,23,04,13,11.60
2012,07,23,04,14,11.60
2012,07,23,04,15,11.60
2012,07,23,04,16,11.60
2012,07,23,04,17,11.60
2012,07,23,04,18,11.60
2012,07,23,04,19,11.60
2012,07,23,04,20,11.50
2012,07,23,04,21,11.50
2012,07,23,04,22,11.50
2012,07,23,04,23,11.50
2012,07,23,04,24,11.50
2012,07,23,04,25,11.50
2012,07,23,04,26,11.50
2012,07,23,04,27,11.40
2012,07,23,04,28,11.40
2012,07,23,04,29,11.40
2012,07,23,04,30,11.40
2012,07,23,04,31,11.40
2012,07,23,04,32,11.40
2012,07,23,04,33,11.40
2012,07,23,04,34,11.40
2012,07,23,04,35,11.40
2012,07,23,04,36,11.40
2012,07,23,04,37,11.40
2012,07,23,04,38,11.40
2012,07,23,04,39,11.40
2012,07,23,04,40,11.40
2012,07,23,04,41,11.40
2012,07,23,04,42,11.40
2012,07,23,04,43,11.40
2012,07,23,04,44,11.40
2012,07,23,04,45,11.40
2012,07,23,04,46,11.40
2012,07,23,04,47,11.40
2012,07,23,04,48,11.50
2012,07,23,04,49,11.50
2012,07,23,04,50,11.50
2012,07,23,04,51,11.50
2012,07,23,04,52,11.40
2012,07,23,04,53,11.40
2012,07,23,04,54,11.40
2012,07,23,04,55,11.40
2012,07,23,04,56,11.40
2012,07,23,04,57,11.40
2012,07,23,04,58,11.40
2012,07,23,04,59,11.40
2012,07,23,05,00,11.40
2012,07,23,05,01,11.40
2012,07,23,05,02,11.40
2012,07,23,05,03,11.40
2012,07,23,05,04,11.40
2012,07,23,05,05,11.40
2012,07,23,05,06,11.40
2012,07,23,05,07,11.40
2012,07,23,05,08,11.40
2012,07,23,05,09,11.40
2012,07,23,05,10,11.40
2012,07,23,05,11,11.40
2012,07,23,05,12,11.40
2012,07,23,05,13,11.40
2012,07,23,05,14,11.40
2012,07,23,05,15,11.40
2012,07,23,05,16,11.40
2012,07,23,05,17,11.40
2012,07,23,05,18,11.40
2012,07,23,05,19,11.40
2012,07,23,05,20,11.40
2012,07,23,05,21,11.40
2012,07,23,05,22,11.40
2012,07,23,05,23,11.40
2012,07,23,05,24,11.40
2012,07,23,05,25,11.40
2012,07,23,05,26,11.30
2012,07,23,05,27,11.30
2012,07,23,05,28,11.30
2012,07,23,05,29,11.30
2012,07,23,05,30,11.40
2012,07,23,05,31,11.40
2012,07,23,05,32,11.40
2012,07,23,05,33,11.40
2012,07,23,05,34,11.40
2012,07,23,05,35,11.40
2012,07,23,05,36,11.40
2012,07,23,05,37,11.40
2012,07,23,05,38,11.40
2012,07,23,05,39,11.40
2012,07,23,05,40,11.40
2012,07,23,05,41,11.40
2012,07,23,05,42,11.40
2012,07,23,05,43,11.40
2012,07,23,05,44,11.40
2012,07,23,05,45,11.40
2012,07,23,05,46,11.40
2012,07,23,05,47,11.40
2012,07,23,05,48,11.40
2012,07,23,05,49,11.40
2012,07,23,05,50,11.40
2012,07,23,05,51,11.40
2012,07,23,05,52,11.40
2012,07,23,05,53,11.40
2012,07,23,05,54,11.40
2012,07,23,05,55,11.40
2012,07,23,05,56,11.40
2012,07,23,05,57,11.40
2012,07,23,05,58,11.40
2012,07,23,05,59,11.40
2012,07,23,06,00,11.40
2012,07,23,06,01,11.40
2012,07,23,06,02,11.40
2012,07,23,06,03,11.40
2012,07,23,06,04,11.50
2012,07,23,06,05,11.50
2012,07,23,06,06,11.50
2012,07,23,06,07,11.50
2012,07,23,06,08,11.50
2012,07,23,06,09,11.50
2012,07,23,06,10,11.50
2012,07,23,06,11,11.60
2012,07,23,06,12,11.60
2012,07,23,06,13,11.60
2012,07,23,06,14,11.60
2012,07,23,06,15,11.60
2012,07,23,06,16,11.60
2012,07,23,06,17,11.60
2012,07,23,06,18,11.60
2012,07,23,06,19,11.60
2012,07,23,06,20,11.60
2012,07,23,06,21,11.70
2012,07,23,06,22,11.70
2012,07,23,06,23,11.70
2012,07,23,06,24,11.70
2012,07,23,06,25,11.70
2012,07,23,06,26,11.70
2012,07,23,06,27,11.70
2012,07,23,06,28,11.70
2012,07,23,06,29,11.70
2012,07,23,06,30,11.70
2012,07,23,06,31,11.70
2012,07,23,06,32,11.70
2012,07,23,06,33,11.70
2012,07,23,06,34,11.70
2012,07,23,06,35,11.80
2012,07,23,06,36,11.80
2012,07,23,06,37,11.80
2012,07,23,06,38,11.80
2012,07,23,06,39,11.80
2012,07,23,06,40,11.80
2012,07,23,06,41,11.80
2012,07,23,06,42,11.80
2012,07,23,06,43,11.80
2012,07,23,06,44,11.80
2012,07,23,06,45,11.90
2012,07,23,06,46,11.90
2012,07,23,06,47,11.90
2012,07,23,06,48,11.90
2012,07,23,06,49,11.90
2012,07,23,06,50,11.90
2012,07,23,06,51,11.90
2012,07,23,06,52,11.90
2012,07,23,06,53,11.90
2012,07,23,06,54,11.90
2012,07,23,06,55,11.90
2012,07,23,06,56,11.90
2012,07,23,06,57,11.90
2012,07,23,06,58,11.90
2012,07,23,06,59,11.90
2012,07,23,07,00,11.90
2012,07,23,07,01,11.90
2012,07,23,07,02,11.90
2012,07,23,07,03,11.90
2012,07,23,07,04,11.90
2012,07,23,07,05,11.90
2012,07,23,07,06,11.90
2012,07,23,07,07,11.90
2012,07,23,07,08,11.90
2012,07,23,07,09,11.90
2012,07,23,07,10,12.00
2012,07,23,07,11,12.00
2012,07,23,07,12,12.00
2012,07,23,07,13,12.00
2012,07,23,07,14,12.00
2012,07,23,07,15,12.00
2012,07,23,07,16,12.00
2012,07,23,07,17,12.00
2012,07,23,07,18,12.00
2012,07,23,07,19,12.00
2012,07,23,07,20,12.00
2012,07,23,07,21,12.00
2012,07,23,07,22,12.00
2012,07,23,07,23,12.00
2012,07,23,07,24,12.00
2012,07,23,07,25,12.00
2012,07,23,07,26,12.00
2012,07,23,07,27,12.00
2012,07,23,07,28,12.00
2012,07,23,07,29,12.10
2012,07,23,07,30,12.10
2012,07,23,07,31,12.10
2012,07,23,07,32,12.10
2012,07,23,07,33,12.10
2012,07,23,07,34,12.10
2012,07,23,07,35,12.10
2012,07,23,07,36,12.10
2012,07,23,07,37,12.10
2012,07,23,07,38,12.10
2012,07,23,07,39,12.10
2012,07,23,07,40,12.20
2012,07,23,07,41,12.20
2012,07,23,07,42,12.20
2012,07,23,07,43,12.20
2012,07,23,07,44,12.20
2012,07,23,07,45,12.20
2012,07,23,07,46,12.20
2012,07,23,07,47,12.30
2012,07,23,07,48,12.30
2012,07,23,07,49,12.30
2012,07,23,07,50,12.30
2012,07,23,07,51,12.30
2012,07,23,07,52,12.40
2012,07,23,07,53,12.40
2012,07,23,07,54,12.40
2012,07,23,07,55,12.40
2012,07,23,07,56,12.40
2012,07,23,07,57,12.40
2012,07,23,07,58,12.40
2012,07,23,07,59,12.40
2012,07,23,08,00,12.50
2012,07,23,08,01,12.50
2012,07,23,08,02,12.50
2012,07,23,08,03,12.50
2012,07,23,08,04,12.50
2012,07,23,08,05,12.50
2012,07,23,08,06,12.50
2012,07,23,08,07,12.50
2012,07,23,08,08,12.50
2012,07,23,08,09,12.50
2012,07,23,08,10,12.50
2012,07,23,08,11,12.50
2012,07,23,08,12,12.50
2012,07,23,08,13,12.60
2012,07,23,08,14,12.60
2012,07,23,08,15,12.60
2012,07,23,08,16,12.60
2012,07,23,08,17,12.60
2012,07,23,08,18,12.60
2012,07,23,08,19,12.60
2012,07,23,08,20,12.60
2012,07,23,08,21,12.60
2012,07,23,08,22,12.60
2012,07,23,08,23,12.60
2012,07,23,08,24,12.60
2012,07,23,08,25,12.60
2012,07,23,08,26,12.70
2012,07,23,08,27,12.70
2012,07,23,08,28,12.70
2012,07,23,08,29,12.70
2012,07,23,08,30,12.70
2012,07,23,08,31,12.70
2012,07,23,08,32,12.70
2012,07,23,08,33,12.70
2012,07,23,08,34,12.70
2012,07,23,08,35,12.70
2012,07,23,08,36,12.80
2012,07,23,08,37,12.80
2012,07,23,08,38,12.80
2012,07,23,08,39,12.80
2012,07,23,08,40,12.80
2012,07,23,08,41,12.80
2012,07,23,08,42,12.80
2012,07,23,08,43,12.80
2012,07,23,08,44,12.90
2012,07,23,08,45,12.90
2012,07,23,08,46,12.90
2012,07,23,08,47,12.90
2012,07,23,08,48,12.90
2012,07,23,08,49,12.90
2012,07,23,08,50,13.00
2012,07,23,08,51,13.00
2012,07,23,08,52,13.00
2012,07,23,08,53,13.10
2012,07,23,08,54,13.10
2012,07,23,08,55,13.10
2012,07,23,08,56,13.10
2012,07,23,08,57,13.10
2012,07,23,08,58,13.10
2012,07,23,08,59,13.10
2012,07,23,09,00,13.10
2012,07,23,09,01,13.10
2012,07,23,09,02,13.20
2012,07,23,09,03,13.20
2012,07,23,09,04,13.20
2012,07,23,09,05,13.30
2012,07,23,09,06,13.30
2012,07,23,09,07,13.30
2012,07,23,09,08,13.30
2012,07,23,09,09,13.30
2012,07,23,09,10,13.30
2012,07,23,09,11,13.30
2012,07,23,09,12,13.30
2012,07,23,09,13,13.30
2012,07,23,09,14,13.30
2012,07,23,09,15,13.30
2012,07,23,09,16,13.30
2012,07,23,09,17,13.30
2012,07,23,09,18,13.40
2012,07,23,09,19,13.40
2012,07,23,09,20,13.40
2012,07,23,09,21,13.40
2012,07,23,09,22,13.40
2012,07,23,09,23,13.40
2012,07,23,09,24,13.40
2012,07,23,09,25,13.40
2012,07,23,09,26,13.40
2012,07,23,09,27,13.40
2012,07,23,09,28,13.40
2012,07,23,09,29,13.50
2012,07,23,09,30,13.50
2012,07,23,09,31,13.50
2012,07,23,09,32,13.50
2012,07,23,09,33,13.60
2012,07,23,09,34,13.60
2012,07,23,09,35,13.60
2012,07,23,09,36,13.60
2012,07,23,09,37,13.60
2012,07,23,09,38,13.60
2012,07,23,09,39,13.60
2012,07,23,09,40,13.60
2012,07,23,09,41,13.60
2012,07,23,09,42,13.70
2012,07,23,09,43,13.70
2012,07,23,09,44,13.70
2012,07,23,09,45,13.70
2012,07,23,09,46,13.80
2012,07,23,09,47,13.80
2012,07,23,09,48,13.80
2012,07,23,09,49,13.80
2012,07,23,09,50,13.80
2012,07,23,09,51,13.80
2012,07,23,09,52,13.80
2012,07,23,09,53,13.70
2012,07,23,09,54,13.70
2012,07,23,09,55,13.70
2012,07,23,09,56,13.70
2012,07,23,09,57,13.70
2012,07,23,09,58,13.80
2012,07,23,09,59,13.80
2012,07,23,10,00,13.80
2012,07,23,10,01,13.80
2012,07,23,10,02,13.80
2012,07,23,10,03,13.80
2012,07,23,10,04,13.80
2012,07,23,10,05,13.80
2012,07,23,10,06,13.80
2012,07,23,10,07,13.80
2012,07,23,10,08,13.80
2012,07,23,10,09,13.80
2012,07,23,10,10,13.80
2012,07,23,10,11,13.80
2012,07,23,10,12,13.80
2012,07,23,10,13,13.80
2012,07,23,10,14,13.70
2012,07,23,10,15,13.70
2012,07,23,10,16,13.70
2012,07,23,10,17,13.70
2012,07,23,10,18,13.70
2012,07,23,10,19,13.80
2012,07,23,10,20,13.80
2012,07,23,10,21,13.80
2012,07,23,10,22,13.80
2012,07,23,10,23,13.80
2012,07,23,10,24,13.80
2012,07,23,10,25,13.80
2012,07,23,10,26,13.80
2012,07,23,10,27,13.80
2012,07,23,10,28,13.80
2012,07,23,10,29,13.80
2012,07,23,10,30,13.80
2012,07,23,10,31,13.80
2012,07,23,10,32,13.90
2012,07,23,10,33,13.90
2012,07,23,10,34,13.90
2012,07,23,10,35,13.90
2012,07,23,10,36,13.90
2012,07,23,10,37,13.90
2012,07,23,10,38,13.90
2012,07,23,10,39,13.90
2012,07,23,10,40,13.90
2012,07,23,10,41,13.90
2012,07,23,10,42,14.00
2012,07,23,10,43,14.00
2012,07,23,10,44,14.00
2012,07,23,10,45,14.00
2012,07,23,10,46,14.00
2012,07,23,10,47,14.00
2012,07,23,10,48,14.00
2012,07,23,10,49,14.00
2012,07,23,10,50,14.00
2012,07,23,10,51,14.00
2012,07,23,10,52,14.10
2012,07,23,10,53,14.10
2012,07,23,10,54,14.10
2012,07,23,10,55,14.10
2012,07,23,10,56,14.10
2012,07,23,10,57,14.10
2012,07,23,10,58,14.10
2012,07,23,10,59,14.10
2012,07,23,11,00,14.10
2012,07,23,11,01,14.20
2012,07,23,11,02,14.20
2012,07,23,11,03,14.20
2012,07,23,11,04,14.20
2012,07,23,11,05,14.30
2012,07,23,11,06,14.30
2012,07,23,11,07,14.30
2012,07,23,11,08,14.30
2012,07,23,11,09,14.30
2012,07,23,11,10,14.40
2012,07,23,11,11,14.40
2012,07,23,11,12,14.40
2012,07,23,11,13,14.40
2012,07,23,11,14,14.40
2012,07,23,11,15,14.50
2012,07,23,11,16,14.50
2012,07,23,11,17,14.50
2012,07,23,11,18,14.50
2012,07,23,11,19,14.60
2012,07,23,11,20,14.60
2012,07,23,11,21,14.70
2012,07,23,11,22,14.70
2012,07,23,11,23,14.70
2012,07,23,11,24,14.70
2012,07,23,11,25,14.70
2012,07,23,11,26,14.80
2012,07,23,11,27,14.80
2012,07,23,11,28,14.80
2012,07,23,11,29,14.90
2012,07,23,11,30,14.90
2012,07,23,11,31,15.00
2012,07,23,11,32,15.00
2012,07,23,11,33,15.00
2012,07,23,11,34,15.10
2012,07,23,11,35,15.10
2012,07,23,11,36,15.20
2012,07,23,11,37,15.20
2012,07,23,11,38,15.20
2012,07,23,11,39,15.30
2012,07,23,11,40,15.30
2012,07,23,11,41,15.40
2012,07,23,11,42,15.40
2012,07,23,11,43,15.50
2012,07,23,11,44,15.60
2012,07,23,11,45,15.70
2012,07,23,11,46,15.70
2012,07,23,11,47,15.80
2012,07,23,11,48,15.90
2012,07,23,11,49,16.00
2012,07,23,11,50,16.00
2012,07,23,11,51,16.10
2012,07,23,11,52,16.20
2012,07,23,11,53,16.20
2012,07,23,11,54,16.30
2012,07,23,11,55,16.30
2012,07,23,11,56,16.30
2012,07,23,11,57,16.40
2012,07,23,11,58,16.40
2012,07,23,11,59,16.40
2012,07,23,12,00,16.40
2012,07,23,12,01,16.40
2012,07,23,12,02,16.40
2012,07,23,12,03,16.30
2012,07,23,12,04,16.30
2012,07,23,12,05,16.40
2012,07,23,12,06,16.40
2012,07,23,12,07,16.40
2012,07,23,12,08,16.40
2012,07,23,12,09,16.40
2012,07,23,12,10,16.40
2012,07,23,12,11,16.40
2012,07,23,12,12,16.40
2012,07,23,12,13,16.40
2012,07,23,12,14,16.40
2012,07,23,12,15,16.40
2012,07,23,12,16,16.50
2012,07,23,12,17,16.50
2012,07,23,12,18,16.60
2012,07,23,12,19,16.70
2012,07,23,12,20,16.80
2012,07,23,12,21,16.90
2012,07,23,12,22,17.00
2012,07,23,12,23,17.10
2012,07,23,12,24,17.30
2012,07,23,12,25,17.40
2012,07,23,12,26,17.50
2012,07,23,12,27,17.60
2012,07,23,12,28,17.70
2012,07,23,12,29,17.90
2012,07,23,12,30,18.00
2012,07,23,12,31,18.10
2012,07,23,12,32,18.20
2012,07,23,12,33,18.30
2012,07,23,12,34,18.30
2012,07,23,12,35,18.40
2012,07,23,12,36,18.40
2012,07,23,12,37,18.50
2012,07,23,12,38,18.70
2012,07,23,12,39,18.80
2012,07,23,12,40,18.80
2012,07,23,12,41,18.90
2012,07,23,12,42,18.90
2012,07,23,12,43,19.00
2012,07,23,12,44,19.00
2012,07,23,12,45,19.00
2012,07,23,12,46,18.90
2012,07,23,12,47,18.90
2012,07,23,12,48,18.80
2012,07,23,12,49,18.70
2012,07,23,12,50,18.60
2012,07,23,12,51,18.50
2012,07,23,12,52,18.50
2012,07,23,12,53,18.40
2012,07,23,12,54,18.40
2012,07,23,12,55,18.40
2012,07,23,12,56,18.40
2012,07,23,12,57,18.50
2012,07,23,12,58,18.60
2012,07,23,12,59,18.70
2012,07,23,13,00,18.80
2012,07,23,13,01,18.80
2012,07,23,13,02,18.90
2012,07,23,13,03,19.00
2012,07,23,13,04,19.00
2012,07,23,13,05,19.10
2012,07,23,13,06,19.20
2012,07,23,13,07,19.30
2012,07,23,13,08,19.40
2012,07,23,13,09,19.60
2012,07,23,13,10,19.80
2012,07,23,13,11,19.90
2012,07,23,13,12,20.10
2012,07,23,13,13,20.20
2012,07,23,13,14,20.20
2012,07,23,13,15,20.30
2012,07,23,13,16,20.30
2012,07,23,13,17,20.30
2012,07,23,13,18,20.30
2012,07,23,13,19,20.20
2012,07,23,13,20,20.10
2012,07,23,13,21,20.00
2012,07,23,13,22,19.90
2012,07,23,13,23,20.00
2012,07,23,13,24,19.90
2012,07,23,13,25,19.90
2012,07,23,13,26,19.80
2012,07,23,13,27,19.80
2012,07,23,13,28,19.90
2012,07,23,13,29,20.00
2012,07,23,13,30,20.10
2012,07,23,13,31,20.20
2012,07,23,13,32,20.30
2012,07,23,13,33,20.30
2012,07,23,13,34,20.40
2012,07,23,13,35,20.50
2012,07,23,13,36,20.50
2012,07,23,13,37,20.60
2012,07,23,13,38,20.50
2012,07,23,13,39,20.40
2012,07,23,13,40,20.30
2012,07,23,13,41,20.10
2012,07,23,13,42,20.00
2012,07,23,13,43,19.90
2012,07,23,13,44,19.90
2012,07,23,13,45,20.00
2012,07,23,13,46,20.00
2012,07,23,13,47,20.10
2012,07,23,13,48,20.20
2012,07,23,13,49,20.30
2012,07,23,13,50,20.30
2012,07,23,13,51,20.40
2012,07,23,13,52,20.40
2012,07,23,13,53,20.50
2012,07,23,13,54,20.60
2012,07,23,13,55,20.70
2012,07,23,13,56,20.80
2012,07,23,13,57,20.90
2012,07,23,13,58,21.00
2012,07,23,13,59,21.10
2012,07,23,14,00,21.10
2012,07,23,14,01,21.20
2012,07,23,14,02,21.30
2012,07,23,14,03,21.30
2012,07,23,14,04,21.30
2012,07,23,14,05,21.30
2012,07,23,14,06,21.30
2012,07,23,14,07,21.30
2012,07,23,14,08,21.30
2012,07,23,14,09,21.30
2012,07,23,14,10,21.30
2012,07,23,14,11,21.30
2012,07,23,14,12,21.30
2012,07,23,14,13,21.30
2012,07,23,14,14,21.20
2012,07,23,14,15,21.20
2012,07,23,14,16,21.20
2012,07,23,14,17,21.10
2012,07,23,14,18,21.10
2012,07,23,14,19,21.10
2012,07,23,14,20,21.20
2012,07,23,14,21,21.20
2012,07,23,14,22,21.20
2012,07,23,14,23,21.20
2012,07,23,14,24,21.20
2012,07,23,14,25,21.20
2012,07,23,14,26,21.30
2012,07,23,14,27,21.40
2012,07,23,14,28,21.50
2012,07,23,14,29,21.70
2012,07,23,14,30,21.80
2012,07,23,14,31,21.90
2012,07,23,14,32,21.90
2012,07,23,14,33,22.00
2012,07,23,14,34,22.10
2012,07,23,14,35,22.20
2012,07,23,14,36,22.30
2012,07,23,14,37,22.50
2012,07,23,14,38,22.50
2012,07,23,14,39,22.50
2012,07,23,14,40,22.50
2012,07,23,14,41,22.40
2012,07,23,14,42,22.20
2012,07,23,14,43,22.10
2012,07,23,14,44,22.00
2012,07,23,14,45,21.90
2012,07,23,14,46,21.90
2012,07,23,14,47,21.90
2012,07,23,14,48,22.00
2012,07,23,14,49,22.10
2012,07,23,14,50,22.30
2012,07,23,14,51,22.40
2012,07,23,14,52,22.50
2012,07,23,14,53,22.60
2012,07,23,14,54,22.50
2012,07,23,14,55,22.50
2012,07,23,14,56,22.40
2012,07,23,14,57,22.50
2012,07,23,14,58,22.50
2012,07,23,14,59,22.50
2012,07,23,15,00,22.60
2012,07,23,15,01,22.70
2012,07,23,15,02,22.80
2012,07,23,15,03,22.80
2012,07,23,15,04,22.80
2012,07,23,15,05,22.70
2012,07,23,15,06,22.60
2012,07,23,15,07,22.60
2012,07,23,15,08,22.60
2012,07,23,15,09,22.50
2012,07,23,15,10,22.40
2012,07,23,15,11,22.30
2012,07,23,15,12,22.20
2012,07,23,15,13,22.10
2012,07,23,15,14,22.10
2012,07,23,15,15,22.10
2012,07,23,15,16,22.00
2012,07,23,15,17,22.00
2012,07,23,15,18,22.00
2012,07,23,15,19,22.20
2012,07,23,15,20,22.30
2012,07,23,15,21,22.30
2012,07,23,15,22,22.40
2012,07,23,15,23,22.40
2012,07,23,15,24,22.50
2012,07,23,15,25,22.50
2012,07,23,15,26,22.50
2012,07,23,15,27,22.50
2012,07,23,15,28,22.60
2012,07,23,15,29,22.60
2012,07,23,15,30,22.60
2012,07,23,15,31,22.70
2012,07,23,15,32,22.80
2012,07,23,15,33,22.90
2012,07,23,15,34,23.00
2012,07,23,15,35,23.20
2012,07,23,15,36,23.20
2012,07,23,15,37,23.30
2012,07,23,15,38,23.40
2012,07,23,15,39,23.60
2012,07,23,15,40,23.70
2012,07,23,15,41,23.80
2012,07,23,15,42,23.80
2012,07,23,15,43,23.80
2012,07,23,15,44,23.80
2012,07,23,15,45,23.80
2012,07,23,15,46,23.60
2012,07,23,15,47,23.40
2012,07,23,15,48,23.30
2012,07,23,15,49,23.20
2012,07,23,15,50,23.20
2012,07,23,15,51,23.30
2012,07,23,15,52,23.30
2012,07,23,15,53,23.30
2012,07,23,15,54,23.20
2012,07,23,15,55,23.10
2012,07,23,15,56,23.00
2012,07,23,15,57,22.90
2012,07,23,15,58,23.00
2012,07,23,15,59,23.10
2012,07,23,16,00,23.30
2012,07,23,16,01,23.30
2012,07,23,16,02,23.40
2012,07,23,16,03,23.30
2012,07,23,16,04,23.20
2012,07,23,16,05,23.10
2012,07,23,16,06,23.00
2012,07,23,16,07,22.90
2012,07,23,16,08,22.90
2012,07,23,16,09,22.80
2012,07,23,16,10,22.80
2012,07,23,16,11,22.80
2012,07,23,16,12,22.80
2012,07,23,16,13,22.80
2012,07,23,16,14,22.80
2012,07,23,16,15,22.80
2012,07,23,16,16,22.70
2012,07,23,16,17,22.60
2012,07,23,16,18,22.60
2012,07,23,16,19,22.60
2012,07,23,16,20,22.60
2012,07,23,16,21,22.60
2012,07,23,16,22,22.60
2012,07,23,16,23,22.60
2012,07,23,16,24,22.70
2012,07,23,16,25,22.70
2012,07,23,16,26,22.70
2012,07,23,16,27,22.60
2012,07,23,16,28,22.60
2012,07,23,16,29,22.60
2012,07,23,16,30,22.70
2012,07,23,16,31,22.80
2012,07,23,16,32,22.80
2012,07,23,16,33,22.80
2012,07,23,16,34,22.80
2012,07,23,16,35,22.80
2012,07,23,16,36,22.80
2012,07,23,16,37,22.80
2012,07,23,16,38,22.70
2012,07,23,16,39,22.70
2012,07,23,16,40,22.70
2012,07,23,16,41,22.70
2012,07,23,16,42,22.70
2012,07,23,16,43,22.70
2012,07,23,16,44,22.70
2012,07,23,16,45,22.70
2012,07,23,16,46,22.80
2012,07,23,16,47,22.80
2012,07,23,16,48,22.80
2012,07,23,16,49,22.80
2012,07,23,16,50,22.80
2012,07,23,16,51,22.70
2012,07,23,16,52,22.50
2012,07,23,16,53,22.40
2012,07,23,16,54,22.30
2012,07,23,16,55,22.30
2012,07,23,16,56,22.30
2012,07,23,16,57,22.30
2012,07,23,16,58,22.30
2012,07,23,16,59,22.30
2012,07,23,17,00,22.30
2012,07,23,17,01,22.30
2012,07,23,17,02,22.30
2012,07,23,17,03,22.30
2012,07,23,17,04,22.30
2012,07,23,17,05,22.30
2012,07,23,17,06,22.20
2012,07,23,17,07,22.20
2012,07,23,17,08,22.20
2012,07,23,17,09,22.20
2012,07,23,17,10,22.10
2012,07,23,17,11,22.10
2012,07,23,17,12,22.10
2012,07,23,17,13,22.10
2012,07,23,17,14,22.10
2012,07,23,17,15,22.10
2012,07,23,17,16,22.10
2012,07,23,17,17,22.10
2012,07,23,17,18,22.10
2012,07,23,17,19,22.10